Year,Month,Day,Hour,Minute,Value (Times are PST for temperature in C)
2018,09,24,00,00,10.80
2018,09,24,00,01,10.80
2018,09,24,00,02,10.80
2018,09,24,00,03,10.80
2018,09,24,00,04,10.80
2018,09,24,00,05,10.70
2018,09,24,00,06,10.70
2018,09,24,00,07,10.70
2018,09,24,00,08,10.70
2018,09,24,00,09,10.70
2018,09,24,00,10,10.60
2018,09,24,00,11,10.60
2018,09,24,00,12,10.60
2018,09,24,00,13,10.60
2018,09,24,00,14,10.60
2018,09,24,00,15,10.50
2018,09,24,00,16,10.50
2018,09,24,00,17,10.50
2018,09,24,00,18,10.50
2018,09,24,00,19,10.40
2018,09,24,00,20,10.40
2018,09,24,00,21,10.40
2018,09,24,00,22,10.40
2018,09,24,00,23,10.40
2018,09,24,00,24,10.50
2018,09,24,00,25,10.50
2018,09,24,00,26,10.50
2018,09,24,00,27,10.50
2018,09,24,00,28,10.50
2018,09,24,00,29,10.50
2018,09,24,00,30,10.50
2018,09,24,00,31,10.40
2018,09,24,00,32,10.40
2018,09,24,00,33,10.40
2018,09,24,00,34,10.30
2018,09,24,00,35,10.30
2018,09,24,00,36,10.30
2018,09,24,00,37,10.20
2018,09,24,00,38,10.20
2018,09,24,00,39,10.20
2018,09,24,00,40,10.20
2018,09,24,00,41,10.20
2018,09,24,00,42,10.10
2018,09,24,00,43,10.10
2018,09,24,00,44,10.10
2018,09,24,00,45,10.10
2018,09,24,00,46,10.10
2018,09,24,00,47,10.00
2018,09,24,00,48,10.00
2018,09,24,00,49,10.00
2018,09,24,00,50,10.00
2018,09,24,00,51,10.00
2018,09,24,00,52,10.00
2018,09,24,00,53,10.10
2018,09,24,00,54,10.10
2018,09,24,00,55,10.10
2018,09,24,00,56,10.10
2018,09,24,00,57,10.10
2018,09,24,00,58,10.10
2018,09,24,00,59,10.00
2018,09,24,01,00,10.00
2018,09,24,01,01,9.90
2018,09,24,01,02,9.90
2018,09,24,01,03,9.90
2018,09,24,01,04,9.90
2018,09,24,01,05,9.90
2018,09,24,01,06,9.90
2018,09,24,01,07,9.80
2018,09,24,01,08,9.80
2018,09,24,01,09,9.80
2018,09,24,01,10,9.80
2018,09,24,01,11,9.80
2018,09,24,01,12,9.80
2018,09,24,01,13,9.80
2018,09,24,01,14,9.80
2018,09,24,01,15,9.80
2018,09,24,01,16,9.80
2018,09,24,01,17,9.80
2018,09,24,01,18,9.80
2018,09,24,01,19,9.70
2018,09,24,01,20,9.70
2018,09,24,01,21,9.70
2018,09,24,01,22,9.70
2018,09,24,01,23,9.70
2018,09,24,01,24,9.70
2018,09,24,01,25,9.70
2018,09,24,01,26,9.70
2018,09,24,01,27,9.70
2018,09,24,01,28,9.70
2018,09,24,01,29,9.70
2018,09,24,01,30,9.70
2018,09,24,01,31,9.70
2018,09,24,01,32,9.70
2018,09,24,01,33,9.70
2018,09,24,01,34,9.70
2018,09,24,01,35,9.70
2018,09,24,01,36,9.70
2018,09,24,01,37,9.60
2018,09,24,01,38,9.60
2018,09,24,01,39,9.60
2018,09,24,01,40,9.50
2018,09,24,01,41,9.50
2018,09,24,01,42,9.50
2018,09,24,01,43,9.50
2018,09,24,01,44,9.50
2018,09,24,01,45,9.50
2018,09,24,01,46,9.50
2018,09,24,01,47,9.50
2018,09,24,01,48,9.50
2018,09,24,01,49,9.50
2018,09,24,01,50,9.50
2018,09,24,01,51,9.50
2018,09,24,01,52,9.50
2018,09,24,01,53,9.60
2018,09,24,01,54,9.60
2018,09,24,01,55,9.60
2018,09,24,01,56,9.60
2018,09,24,01,57,9.60
2018,09,24,01,58,9.60
2018,09,24,01,59,9.50
2018,09,24,02,00,9.50
2018,09,24,02,01,9.50
2018,09,24,02,02,9.50
2018,09,24,02,03,9.50
2018,09,24,02,04,9.50
2018,09,24,02,05,9.50
2018,09,24,02,06,9.50
2018,09,24,02,07,9.50
2018,09,24,02,08,9.60
2018,09,24,02,09,9.60
2018,09,24,02,10,9.60
2018,09,24,02,11,9.60
2018,09,24,02,12,9.60
2018,09,24,02,13,9.50
2018,09,24,02,14,9.50
2018,09,24,02,15,9.50
2018,09,24,02,16,9.50
2018,09,24,02,17,9.50
2018,09,24,02,18,9.50
2018,09,24,02,19,9.50
2018,09,24,02,20,9.50
2018,09,24,02,21,9.50
2018,09,24,02,22,9.50
2018,09,24,02,23,9.60
2018,09,24,02,24,9.60
2018,09,24,02,25,9.60
2018,09,24,02,26,9.70
2018,09,24,02,27,9.70
2018,09,24,02,28,9.70
2018,09,24,02,29,9.70
2018,09,24,02,30,9.70
2018,09,24,02,31,9.70
2018,09,24,02,32,9.80
2018,09,24,02,33,9.80
2018,09,24,02,34,9.80
2018,09,24,02,35,9.80
2018,09,24,02,36,9.80
2018,09,24,02,37,9.80
2018,09,24,02,38,9.90
2018,09,24,02,39,9.90
2018,09,24,02,40,9.90
2018,09,24,02,41,9.90
2018,09,24,02,42,9.90
2018,09,24,02,43,9.90
2018,09,24,02,44,9.90
2018,09,24,02,45,9.90
2018,09,24,02,46,9.90
2018,09,24,02,47,10.00
2018,09,24,02,48,10.00
2018,09,24,02,49,10.00
2018,09,24,02,50,10.00
2018,09,24,02,51,10.00
2018,09,24,02,52,9.90
2018,09,24,02,53,9.90
2018,09,24,02,54,9.90
2018,09,24,02,55,9.90
2018,09,24,02,56,9.90
2018,09,24,02,57,9.90
2018,09,24,02,58,9.90
2018,09,24,02,59,9.90
2018,09,24,03,00,9.90
2018,09,24,03,01,9.90
2018,09,24,03,02,9.90
2018,09,24,03,03,9.90
2018,09,24,03,04,9.90
2018,09,24,03,05,9.90
2018,09,24,03,06,9.90
2018,09,24,03,07,9.90
2018,09,24,03,08,9.90
2018,09,24,03,09,9.90
2018,09,24,03,10,9.90
2018,09,24,03,11,9.90
2018,09,24,03,12,9.80
2018,09,24,03,13,9.80
2018,09,24,03,14,9.80
2018,09,24,03,15,9.80
2018,09,24,03,16,9.80
2018,09,24,03,17,9.80
2018,09,24,03,18,9.70
2018,09,24,03,19,9.70
2018,09,24,03,20,9.70
2018,09,24,03,21,9.70
2018,09,24,03,22,9.70
2018,09,24,03,23,9.70
2018,09,24,03,24,9.70
2018,09,24,03,25,9.70
2018,09,24,03,26,9.60
2018,09,24,03,27,9.60
2018,09,24,03,28,9.60
2018,09,24,03,29,9.60
2018,09,24,03,30,9.60
2018,09,24,03,31,9.60
2018,09,24,03,32,9.50
2018,09,24,03,33,9.50
2018,09,24,03,34,9.50
2018,09,24,03,35,9.50
2018,09,24,03,36,9.50
2018,09,24,03,37,9.50
2018,09,24,03,38,9.50
2018,09,24,03,39,9.40
2018,09,24,03,40,9.40
2018,09,24,03,41,9.40
2018,09,24,03,42,9.40
2018,09,24,03,43,9.40
2018,09,24,03,44,9.40
2018,09,24,03,45,9.30
2018,09,24,03,46,9.30
2018,09,24,03,47,9.30
2018,09,24,03,48,9.30
2018,09,24,03,49,9.40
2018,09,24,03,50,9.40
2018,09,24,03,51,9.40
2018,09,24,03,52,9.40
2018,09,24,03,53,9.40
2018,09,24,03,54,9.40
2018,09,24,03,55,9.40
2018,09,24,03,56,9.40
2018,09,24,03,57,9.40
2018,09,24,03,58,9.40
2018,09,24,03,59,9.40
2018,09,24,04,00,9.40
2018,09,24,04,01,9.40
2018,09,24,04,02,9.40
2018,09,24,04,03,9.40
2018,09,24,04,04,9.40
2018,09,24,04,05,9.40
2018,09,24,04,06,9.40
2018,09,24,04,07,9.30
2018,09,24,04,08,9.30
2018,09,24,04,09,9.30
2018,09,24,04,10,9.30
2018,09,24,04,11,9.30
2018,09,24,04,12,9.30
2018,09,24,04,13,9.30
2018,09,24,04,14,9.30
2018,09,24,04,15,9.30
2018,09,24,04,16,9.30
2018,09,24,04,17,9.20
2018,09,24,04,18,9.20
2018,09,24,04,19,9.20
2018,09,24,04,20,9.20
2018,09,24,04,21,9.20
2018,09,24,04,22,9.20
2018,09,24,04,23,9.20
2018,09,24,04,24,9.20
2018,09,24,04,25,9.20
2018,09,24,04,26,9.10
2018,09,24,04,27,9.10
2018,09,24,04,28,9.10
2018,09,24,04,29,9.10
2018,09,24,04,30,9.20
2018,09,24,04,31,9.20
2018,09,24,04,32,9.20
2018,09,24,04,33,9.20
2018,09,24,04,34,9.20
2018,09,24,04,35,9.20
2018,09,24,04,36,9.20
2018,09,24,04,37,9.20
2018,09,24,04,38,9.20
2018,09,24,04,39,9.10
2018,09,24,04,40,9.10
2018,09,24,04,41,9.10
2018,09,24,04,42,9.10
2018,09,24,04,43,9.10
2018,09,24,04,44,9.10
2018,09,24,04,45,9.00
2018,09,24,04,46,9.00
2018,09,24,04,47,9.00
2018,09,24,04,48,9.00
2018,09,24,04,49,9.00
2018,09,24,04,50,8.90
2018,09,24,04,51,8.90
2018,09,24,04,52,8.90
2018,09,24,04,53,8.90
2018,09,24,04,54,8.90
2018,09,24,04,55,8.90
2018,09,24,04,56,8.80
2018,09,24,04,57,8.80
2018,09,24,04,58,8.80
2018,09,24,04,59,8.80
2018,09,24,05,00,8.80
2018,09,24,05,01,8.80
2018,09,24,05,02,8.80
2018,09,24,05,03,8.80
2018,09,24,05,04,8.70
2018,09,24,05,05,8.70
2018,09,24,05,06,8.70
2018,09,24,05,07,8.70
2018,09,24,05,08,8.70
2018,09,24,05,09,8.70
2018,09,24,05,10,8.60
2018,09,24,05,11,8.60
2018,09,24,05,12,8.60
2018,09,24,05,13,8.60
2018,09,24,05,14,8.70
2018,09,24,05,15,8.60
2018,09,24,05,16,8.60
2018,09,24,05,17,8.60
2018,09,24,05,18,8.50
2018,09,24,05,19,8.60
2018,09,24,05,20,8.60
2018,09,24,05,21,8.70
2018,09,24,05,22,8.70
2018,09,24,05,23,8.70
2018,09,24,05,24,8.70
2018,09,24,05,25,8.70
2018,09,24,05,26,8.70
2018,09,24,05,27,8.70
2018,09,24,05,28,8.60
2018,09,24,05,29,8.60
2018,09,24,05,30,8.60
2018,09,24,05,31,8.60
2018,09,24,05,32,8.60
2018,09,24,05,33,8.60
2018,09,24,05,34,8.60
2018,09,24,05,35,8.60
2018,09,24,05,36,8.60
2018,09,24,05,37,8.50
2018,09,24,05,38,8.50
2018,09,24,05,39,8.50
2018,09,24,05,40,8.50
2018,09,24,05,41,8.60
2018,09,24,05,42,8.60
2018,09,24,05,43,8.70
2018,09,24,05,44,8.80
2018,09,24,05,45,8.80
2018,09,24,05,46,8.80
2018,09,24,05,47,8.70
2018,09,24,05,48,8.70
2018,09,24,05,49,8.60
2018,09,24,05,50,8.60
2018,09,24,05,51,8.60
2018,09,24,05,52,8.50
2018,09,24,05,53,8.50
2018,09,24,05,54,8.40
2018,09,24,05,55,8.40
2018,09,24,05,56,8.40
2018,09,24,05,57,8.40
2018,09,24,05,58,8.40
2018,09,24,05,59,8.40
2018,09,24,06,00,8.40
2018,09,24,06,01,8.40
2018,09,24,06,02,8.40
2018,09,24,06,03,8.30
2018,09,24,06,04,8.40
2018,09,24,06,05,8.30
2018,09,24,06,06,8.30
2018,09,24,06,07,8.30
2018,09,24,06,08,8.30
2018,09,24,06,09,8.30
2018,09,24,06,10,8.30
2018,09,24,06,11,8.30
2018,09,24,06,12,8.30
2018,09,24,06,13,8.30
2018,09,24,06,14,8.30
2018,09,24,06,15,8.30
2018,09,24,06,16,8.30
2018,09,24,06,17,8.30
2018,09,24,06,18,8.30
2018,09,24,06,19,8.20
2018,09,24,06,20,8.20
2018,09,24,06,21,8.20
2018,09,24,06,22,8.20
2018,09,24,06,23,8.20
2018,09,24,06,24,8.20
2018,09,24,06,25,8.20
2018,09,24,06,26,8.20
2018,09,24,06,27,8.20
2018,09,24,06,28,8.20
2018,09,24,06,29,8.20
2018,09,24,06,30,8.20
2018,09,24,06,31,8.20
2018,09,24,06,32,8.20
2018,09,24,06,33,8.20
2018,09,24,06,34,8.20
2018,09,24,06,35,8.20
2018,09,24,06,36,8.20
2018,09,24,06,37,8.20
2018,09,24,06,38,8.20
2018,09,24,06,39,8.20
2018,09,24,06,40,8.10
2018,09,24,06,41,8.10
2018,09,24,06,42,8.10
2018,09,24,06,43,8.10
2018,09,24,06,44,8.10
2018,09,24,06,45,8.10
2018,09,24,06,46,8.00
2018,09,24,06,47,8.00
2018,09,24,06,48,8.00
2018,09,24,06,49,8.00
2018,09,24,06,50,7.90
2018,09,24,06,51,7.90
2018,09,24,06,52,7.90
2018,09,24,06,53,7.90
2018,09,24,06,54,7.90
2018,09,24,06,55,7.80
2018,09,24,06,56,7.80
2018,09,24,06,57,7.80
2018,09,24,06,58,7.80
2018,09,24,06,59,7.80
2018,09,24,07,00,7.80
2018,09,24,07,01,7.90
2018,09,24,07,02,7.90
2018,09,24,07,03,7.90
2018,09,24,07,04,7.90
2018,09,24,07,05,7.80
2018,09,24,07,06,7.80
2018,09,24,07,07,7.80
2018,09,24,07,08,7.80
2018,09,24,07,09,7.80
2018,09,24,07,10,7.80
2018,09,24,07,11,7.80
2018,09,24,07,12,7.80
2018,09,24,07,13,7.80
2018,09,24,07,14,7.80
2018,09,24,07,15,7.90
2018,09,24,07,16,7.90
2018,09,24,07,17,8.00
2018,09,24,07,18,8.00
2018,09,24,07,19,8.00
2018,09,24,07,20,8.00
2018,09,24,07,21,8.00
2018,09,24,07,22,7.90
2018,09,24,07,23,7.90
2018,09,24,07,24,7.90
2018,09,24,07,25,7.90
2018,09,24,07,26,7.80
2018,09,24,07,27,7.80
2018,09,24,07,28,7.80
2018,09,24,07,29,7.80
2018,09,24,07,30,7.80
2018,09,24,07,31,7.80
2018,09,24,07,32,7.80
2018,09,24,07,33,7.80
2018,09,24,07,34,7.80
2018,09,24,07,35,7.80
2018,09,24,07,36,7.80
2018,09,24,07,37,7.80
2018,09,24,07,38,7.80
2018,09,24,07,39,7.80
2018,09,24,07,40,7.80
2018,09,24,07,41,7.80
2018,09,24,07,42,7.80
2018,09,24,07,43,7.80
2018,09,24,07,44,7.80
2018,09,24,07,45,7.70
2018,09,24,07,46,7.70
2018,09,24,07,47,7.70
2018,09,24,07,48,7.70
2018,09,24,07,49,7.70
2018,09,24,07,50,7.70
2018,09,24,07,51,7.70
2018,09,24,07,52,7.70
2018,09,24,07,53,7.70
2018,09,24,07,54,7.70
2018,09,24,07,55,7.70
2018,09,24,07,56,7.70
2018,09,24,07,57,7.70
2018,09,24,07,58,7.70
2018,09,24,07,59,7.80
2018,09,24,08,00,7.80
2018,09,24,08,01,7.80
2018,09,24,08,02,7.80
2018,09,24,08,03,7.80
2018,09,24,08,04,7.80
2018,09,24,08,05,7.70
2018,09,24,08,06,7.70
2018,09,24,08,07,7.70
2018,09,24,08,08,7.70
2018,09,24,08,09,7.70
2018,09,24,08,10,7.70
2018,09,24,08,11,7.70
2018,09,24,08,12,7.70
2018,09,24,08,13,7.70
2018,09,24,08,14,7.70
2018,09,24,08,15,7.70
2018,09,24,08,16,7.70
2018,09,24,08,17,7.70
2018,09,24,08,18,7.70
2018,09,24,08,19,7.70
2018,09,24,08,20,7.70
2018,09,24,08,21,7.70
2018,09,24,08,22,7.70
2018,09,24,08,23,7.80
2018,09,24,08,24,7.80
2018,09,24,08,25,7.80
2018,09,24,08,26,7.80
2018,09,24,08,27,7.80
2018,09,24,08,28,7.80
2018,09,24,08,29,7.80
2018,09,24,08,30,7.80
2018,09,24,08,31,7.80
2018,09,24,08,32,7.80
2018,09,24,08,33,7.80
2018,09,24,08,34,7.80
2018,09,24,08,35,7.80
2018,09,24,08,36,7.80
2018,09,24,08,37,7.80
2018,09,24,08,38,7.80
2018,09,24,08,39,7.80
2018,09,24,08,40,7.80
2018,09,24,08,41,7.80
2018,09,24,08,42,7.80
2018,09,24,08,43,7.80
2018,09,24,08,44,7.80
2018,09,24,08,45,7.80
2018,09,24,08,46,7.80
2018,09,24,08,47,7.80
2018,09,24,08,48,7.80
2018,09,24,08,49,7.90
2018,09,24,08,50,7.90
2018,09,24,08,51,7.90
2018,09,24,08,52,7.90
2018,09,24,08,53,7.90
2018,09,24,08,54,7.90
2018,09,24,08,55,7.90
2018,09,24,08,56,7.90
2018,09,24,08,57,7.90
2018,09,24,08,58,7.90
2018,09,24,08,59,7.90
2018,09,24,09,00,7.90
2018,09,24,09,01,7.90
2018,09,24,09,02,7.90
2018,09,24,09,03,7.90
2018,09,24,09,04,7.90
2018,09,24,09,05,7.90
2018,09,24,09,06,8.00
2018,09,24,09,07,8.00
2018,09,24,09,08,8.00
2018,09,24,09,09,8.10
2018,09,24,09,10,8.10
2018,09,24,09,11,8.10
2018,09,24,09,12,8.20
2018,09,24,09,13,8.20
2018,09,24,09,14,8.20
2018,09,24,09,15,8.20
2018,09,24,09,16,8.20
2018,09,24,09,17,8.20
2018,09,24,09,18,8.20
2018,09,24,09,19,8.20
2018,09,24,09,20,8.20
2018,09,24,09,21,8.20
2018,09,24,09,22,8.20
2018,09,24,09,23,8.20
2018,09,24,09,24,8.20
2018,09,24,09,25,8.20
2018,09,24,09,26,8.30
2018,09,24,09,27,8.30
2018,09,24,09,28,8.30
2018,09,24,09,29,8.30
2018,09,24,09,30,8.30
2018,09,24,09,31,8.40
2018,09,24,09,32,8.40
2018,09,24,09,33,8.40
2018,09,24,09,34,8.40
2018,09,24,09,35,8.40
2018,09,24,09,36,8.40
2018,09,24,09,37,8.50
2018,09,24,09,38,8.50
2018,09,24,09,39,8.50
2018,09,24,09,40,8.50
2018,09,24,09,41,8.60
2018,09,24,09,42,8.60
2018,09,24,09,43,8.60
2018,09,24,09,44,8.60
2018,09,24,09,45,8.70
2018,09,24,09,46,8.70
2018,09,24,09,47,8.70
2018,09,24,09,48,8.70
2018,09,24,09,49,8.80
2018,09,24,09,50,8.80
2018,09,24,09,51,8.80
2018,09,24,09,52,8.90
2018,09,24,09,53,8.90
2018,09,24,09,54,8.90
2018,09,24,09,55,8.90
2018,09,24,09,56,8.90
2018,09,24,09,57,8.90
2018,09,24,09,58,9.00
2018,09,24,09,59,9.10
2018,09,24,10,00,9.10
2018,09,24,10,01,9.20
2018,09,24,10,02,9.20
2018,09,24,10,03,9.30
2018,09,24,10,04,9.30
2018,09,24,10,05,9.40
2018,09,24,10,06,9.40
2018,09,24,10,07,9.40
2018,09,24,10,08,9.40
2018,09,24,10,09,9.40
2018,09,24,10,10,9.40
2018,09,24,10,11,9.40
2018,09,24,10,12,9.40
2018,09,24,10,13,9.50
2018,09,24,10,14,9.50
2018,09,24,10,15,9.60
2018,09,24,10,16,9.60
2018,09,24,10,17,9.70
2018,09,24,10,18,9.70
2018,09,24,10,19,9.70
2018,09,24,10,20,9.80
2018,09,24,10,21,9.80
2018,09,24,10,22,9.80
2018,09,24,10,23,9.80
2018,09,24,10,24,9.90
2018,09,24,10,25,9.90
2018,09,24,10,26,10.00
2018,09,24,10,27,10.00
2018,09,24,10,28,10.00
2018,09,24,10,29,10.00
2018,09,24,10,30,10.00
2018,09,24,10,31,10.00
2018,09,24,10,32,10.00
2018,09,24,10,33,10.10
2018,09,24,10,34,10.20
2018,09,24,10,35,10.30
2018,09,24,10,36,10.40
2018,09,24,10,37,10.50
2018,09,24,10,38,10.50
2018,09,24,10,39,10.60
2018,09,24,10,40,10.70
2018,09,24,10,41,10.80
2018,09,24,10,42,10.90
2018,09,24,10,43,11.10
2018,09,24,10,44,11.30
2018,09,24,10,45,11.40
2018,09,24,10,46,11.50
2018,09,24,10,47,11.60
2018,09,24,10,48,11.80
2018,09,24,10,49,11.90
2018,09,24,10,50,12.00
2018,09,24,10,51,12.10
2018,09,24,10,52,12.20
2018,09,24,10,53,12.30
2018,09,24,10,54,12.50
2018,09,24,10,55,12.60
2018,09,24,10,56,12.70
2018,09,24,10,57,12.70
2018,09,24,10,58,12.70
2018,09,24,10,59,12.70
2018,09,24,11,00,12.70
2018,09,24,11,01,12.70
2018,09,24,11,02,12.80
2018,09,24,11,03,12.90
2018,09,24,11,04,13.00
2018,09,24,11,05,13.20
2018,09,24,11,06,13.20
2018,09,24,11,07,13.20
2018,09,24,11,08,13.20
2018,09,24,11,09,13.20
2018,09,24,11,10,13.20
2018,09,24,11,11,13.20
2018,09,24,11,12,13.30
2018,09,24,11,13,13.30
2018,09,24,11,14,13.30
2018,09,24,11,15,13.30
2018,09,24,11,16,13.40
2018,09,24,11,17,13.40
2018,09,24,11,18,13.50
2018,09,24,11,19,13.60
2018,09,24,11,20,13.70
2018,09,24,11,21,13.80
2018,09,24,11,22,13.90
2018,09,24,11,23,14.00
2018,09,24,11,24,14.10
2018,09,24,11,25,14.20
2018,09,24,11,26,14.30
2018,09,24,11,27,14.40
2018,09,24,11,28,14.40
2018,09,24,11,29,14.40
2018,09,24,11,30,14.50
2018,09,24,11,31,14.60
2018,09,24,11,32,14.80
2018,09,24,11,33,14.90
2018,09,24,11,34,15.00
2018,09,24,11,35,15.20
2018,09,24,11,36,15.30
2018,09,24,11,37,15.50
2018,09,24,11,38,15.70
2018,09,24,11,39,15.80
2018,09,24,11,40,16.00
2018,09,24,11,41,16.10
2018,09,24,11,42,16.20
2018,09,24,11,43,16.30
2018,09,24,11,44,16.50
2018,09,24,11,45,16.50
2018,09,24,11,46,16.60
2018,09,24,11,47,16.70
2018,09,24,11,48,16.80
2018,09,24,11,49,16.80
2018,09,24,11,50,17.00
2018,09,24,11,51,17.10
2018,09,24,11,52,17.20
2018,09,24,11,53,17.30
2018,09,24,11,54,17.40
2018,09,24,11,55,17.50
2018,09,24,11,56,17.60
2018,09,24,11,57,17.70
2018,09,24,11,58,17.70
2018,09,24,11,59,17.80
2018,09,24,12,00,17.90
2018,09,24,12,01,17.90
2018,09,24,12,02,18.00
2018,09,24,12,03,18.10
2018,09,24,12,04,18.20
2018,09,24,12,05,18.20
2018,09,24,12,06,18.20
2018,09,24,12,07,18.30
2018,09,24,12,08,18.30
2018,09,24,12,09,18.40
2018,09,24,12,10,18.40
2018,09,24,12,11,18.40
2018,09,24,12,12,18.50
2018,09,24,12,13,18.50
2018,09,24,12,14,18.50
2018,09,24,12,15,18.50
2018,09,24,12,16,18.60
2018,09,24,12,17,18.70
2018,09,24,12,18,18.80
2018,09,24,12,19,18.80
2018,09,24,12,20,18.80
2018,09,24,12,21,18.90
2018,09,24,12,22,18.90
2018,09,24,12,23,18.90
2018,09,24,12,24,19.00
2018,09,24,12,25,19.00
2018,09,24,12,26,19.00
2018,09,24,12,27,19.00
2018,09,24,12,28,19.10
2018,09,24,12,29,19.10
2018,09,24,12,30,19.10
2018,09,24,12,31,19.10
2018,09,24,12,32,19.10
2018,09,24,12,33,19.20
2018,09,24,12,34,19.20
2018,09,24,12,35,19.20
2018,09,24,12,36,19.30
2018,09,24,12,37,19.30
2018,09,24,12,38,19.40
2018,09,24,12,39,19.50
2018,09,24,12,40,19.60
2018,09,24,12,41,19.60
2018,09,24,12,42,19.60
2018,09,24,12,43,19.70
2018,09,24,12,44,19.70
2018,09,24,12,45,19.70
2018,09,24,12,46,19.80
2018,09,24,12,47,19.90
2018,09,24,12,48,19.90
2018,09,24,12,49,20.00
2018,09,24,12,50,20.00
2018,09,24,12,51,20.10
2018,09,24,12,52,20.10
2018,09,24,12,53,20.20
2018,09,24,12,54,20.20
2018,09,24,12,55,20.20
2018,09,24,12,56,20.20
2018,09,24,12,57,20.10
2018,09,24,12,58,20.10
2018,09,24,12,59,20.10
2018,09,24,13,00,20.10
2018,09,24,13,01,20.10
2018,09,24,13,02,20.10
2018,09,24,13,03,20.10
2018,09,24,13,04,20.20
2018,09,24,13,05,20.20
2018,09,24,13,06,20.30
2018,09,24,13,07,20.30
2018,09,24,13,08,20.30
2018,09,24,13,09,20.40
2018,09,24,13,10,20.40
2018,09,24,13,11,20.50
2018,09,24,13,12,20.50
2018,09,24,13,13,20.60
2018,09,24,13,14,20.60
2018,09,24,13,15,20.70
2018,09,24,13,16,20.70
2018,09,24,13,17,20.70
2018,09,24,13,18,20.70
2018,09,24,13,19,20.70
2018,09,24,13,20,20.70
2018,09,24,13,21,20.70
2018,09,24,13,22,20.70
2018,09,24,13,23,20.70
2018,09,24,13,24,20.80
2018,09,24,13,25,20.80
2018,09,24,13,26,20.80
2018,09,24,13,27,20.80
2018,09,24,13,28,20.70
2018,09,24,13,29,20.70
2018,09,24,13,30,20.70
2018,09,24,13,31,20.70
2018,09,24,13,32,20.70
2018,09,24,13,33,20.70
2018,09,24,13,34,20.70
2018,09,24,13,35,20.70
2018,09,24,13,36,20.70
2018,09,24,13,37,20.80
2018,09,24,13,38,20.90
2018,09,24,13,39,20.90
2018,09,24,13,40,21.00
2018,09,24,13,41,21.00
2018,09,24,13,42,21.10
2018,09,24,13,43,21.10
2018,09,24,13,44,21.10
2018,09,24,13,45,21.10
2018,09,24,13,46,21.10
2018,09,24,13,47,21.10
2018,09,24,13,48,21.00
2018,09,24,13,49,20.90
2018,09,24,13,50,20.90
2018,09,24,13,51,20.90
2018,09,24,13,52,20.90
2018,09,24,13,53,21.00
2018,09,24,13,54,21.00
2018,09,24,13,55,21.00
2018,09,24,13,56,21.10
2018,09,24,13,57,21.10
2018,09,24,13,58,21.20
2018,09,24,13,59,21.20
2018,09,24,14,00,21.20
2018,09,24,14,01,21.30
2018,09,24,14,02,21.30
2018,09,24,14,03,21.30
2018,09,24,14,04,21.20
2018,09,24,14,05,21.20
2018,09,24,14,06,21.20
2018,09,24,14,07,21.20
2018,09,24,14,08,21.30
2018,09,24,14,09,21.30
2018,09,24,14,10,21.40
2018,09,24,14,11,21.40
2018,09,24,14,12,21.50
2018,09,24,14,13,21.50
2018,09,24,14,14,21.50
2018,09,24,14,15,21.50
2018,09,24,14,16,21.50
2018,09,24,14,17,21.50
2018,09,24,14,18,21.50
2018,09,24,14,19,21.50
2018,09,24,14,20,21.50
2018,09,24,14,21,21.60
2018,09,24,14,22,21.60
2018,09,24,14,23,21.60
2018,09,24,14,24,21.50
2018,09,24,14,25,21.50
2018,09,24,14,26,21.50
2018,09,24,14,27,21.60
2018,09,24,14,28,21.60
2018,09,24,14,29,21.60
2018,09,24,14,30,21.60
2018,09,24,14,31,21.60
2018,09,24,14,32,21.60
2018,09,24,14,33,21.60
2018,09,24,14,34,21.60
2018,09,24,14,35,21.60
2018,09,24,14,36,21.70
2018,09,24,14,37,21.80
2018,09,24,14,38,21.90
2018,09,24,14,39,21.90
2018,09,24,14,40,22.00
2018,09,24,14,41,22.00
2018,09,24,14,42,22.10
2018,09,24,14,43,22.10
2018,09,24,14,44,22.00
2018,09,24,14,45,22.10
2018,09,24,14,46,22.10
2018,09,24,14,47,22.10
2018,09,24,14,48,22.10
2018,09,24,14,49,22.10
2018,09,24,14,50,22.20
2018,09,24,14,51,22.20
2018,09,24,14,52,22.30
2018,09,24,14,53,22.30
2018,09,24,14,54,22.30
2018,09,24,14,55,22.40
2018,09,24,14,56,22.40
2018,09,24,14,57,22.30
2018,09,24,14,58,22.30
2018,09,24,14,59,22.30
2018,09,24,15,00,22.30
2018,09,24,15,01,22.30
2018,09,24,15,02,22.30
2018,09,24,15,03,22.20
2018,09,24,15,04,22.10
2018,09,24,15,05,22.10
2018,09,24,15,06,22.00
2018,09,24,15,07,21.80
2018,09,24,15,08,21.70
2018,09,24,15,09,21.60
2018,09,24,15,10,21.60
2018,09,24,15,11,21.60
2018,09,24,15,12,21.70
2018,09,24,15,13,21.70
2018,09,24,15,14,21.70
2018,09,24,15,15,21.70
2018,09,24,15,16,21.70
2018,09,24,15,17,21.70
2018,09,24,15,18,21.70
2018,09,24,15,19,21.70
2018,09,24,15,20,21.70
2018,09,24,15,21,21.70
2018,09,24,15,22,21.60
2018,09,24,15,23,21.60
2018,09,24,15,24,21.60
2018,09,24,15,25,21.60
2018,09,24,15,26,21.60
2018,09,24,15,27,21.60
2018,09,24,15,28,21.60
2018,09,24,15,29,21.60
2018,09,24,15,30,21.60
2018,09,24,15,31,21.60
2018,09,24,15,32,21.60
2018,09,24,15,33,21.50
2018,09,24,15,34,21.50
2018,09,24,15,35,21.50
2018,09,24,15,36,21.40
2018,09,24,15,37,21.40
2018,09,24,15,38,21.40
2018,09,24,15,39,21.40
2018,09,24,15,40,21.30
2018,09,24,15,41,21.30
2018,09,24,15,42,21.30
2018,09,24,15,43,21.30
2018,09,24,15,44,21.30
2018,09,24,15,45,21.30
2018,09,24,15,46,21.30
2018,09,24,15,47,21.30
2018,09,24,15,48,21.30
2018,09,24,15,49,21.40
2018,09,24,15,50,21.40
2018,09,24,15,51,21.40
2018,09,24,15,52,21.40
2018,09,24,15,53,21.40
2018,09,24,15,54,21.40
2018,09,24,15,55,21.30
2018,09,24,15,56,21.30
2018,09,24,15,57,21.30
2018,09,24,15,58,21.30
2018,09,24,15,59,21.30
2018,09,24,16,00,21.30
2018,09,24,16,01,21.20
2018,09,24,16,02,21.20
2018,09,24,16,03,21.20
2018,09,24,16,04,21.20
2018,09,24,16,05,21.10
2018,09,24,16,06,21.10
2018,09,24,16,07,21.10
2018,09,24,16,08,21.10
2018,09,24,16,09,21.10
2018,09,24,16,10,21.10
2018,09,24,16,11,21.10
2018,09,24,16,12,21.10
2018,09,24,16,13,21.10
2018,09,24,16,14,21.10
2018,09,24,16,15,21.10
2018,09,24,16,16,21.10
2018,09,24,16,17,21.10
2018,09,24,16,18,21.00
2018,09,24,16,19,21.00
2018,09,24,16,20,21.00
2018,09,24,16,21,20.90
2018,09,24,16,22,20.90
2018,09,24,16,23,20.90
2018,09,24,16,24,20.90
2018,09,24,16,25,20.90
2018,09,24,16,26,20.90
2018,09,24,16,27,21.00
2018,09,24,16,28,21.00
2018,09,24,16,29,21.00
2018,09,24,16,30,21.10
2018,09,24,16,31,21.10
2018,09,24,16,32,21.10
2018,09,24,16,33,21.10
2018,09,24,16,34,21.10
2018,09,24,16,35,21.00
2018,09,24,16,36,21.00
2018,09,24,16,37,20.90
2018,09,24,16,38,20.90
2018,09,24,16,39,20.80
2018,09,24,16,40,20.80
2018,09,24,16,41,20.70
2018,09,24,16,42,20.60
2018,09,24,16,43,20.60
2018,09,24,16,44,20.50
2018,09,24,16,45,20.50
2018,09,24,16,46,20.40
2018,09,24,16,47,20.40
2018,09,24,16,48,20.40
2018,09,24,16,49,20.50
2018,09,24,16,50,20.50
2018,09,24,16,51,20.60
2018,09,24,16,52,20.60
2018,09,24,16,53,20.70
2018,09,24,16,54,20.60
2018,09,24,16,55,20.60
2018,09,24,16,56,20.50
2018,09,24,16,57,20.50
2018,09,24,16,58,20.40
2018,09,24,16,59,20.40
2018,09,24,17,00,20.40
2018,09,24,17,01,20.30
2018,09,24,17,02,20.30
2018,09,24,17,03,20.30
2018,09,24,17,04,20.20
2018,09,24,17,05,20.20
2018,09,24,17,06,20.10
2018,09,24,17,07,20.00
2018,09,24,17,08,20.00
2018,09,24,17,09,19.90
2018,09,24,17,10,19.90
2018,09,24,17,11,19.90
2018,09,24,17,12,19.90
2018,09,24,17,13,19.90
2018,09,24,17,14,19.80
2018,09,24,17,15,19.80
2018,09,24,17,16,19.80
2018,09,24,17,17,19.80
2018,09,24,17,18,19.80
2018,09,24,17,19,19.80
2018,09,24,17,20,19.80
2018,09,24,17,21,19.80
2018,09,24,17,22,19.80
2018,09,24,17,23,19.80
2018,09,24,17,24,19.80
2018,09,24,17,25,19.80
2018,09,24,17,26,19.90
2018,09,24,17,27,19.90
2018,09,24,17,28,20.00
2018,09,24,17,29,20.00
2018,09,24,17,30,20.10
2018,09,24,17,31,20.10
2018,09,24,17,32,20.10
2018,09,24,17,33,20.10
2018,09,24,17,34,20.10
2018,09,24,17,35,20.10
2018,09,24,17,36,20.20
2018,09,24,17,37,20.20
2018,09,24,17,38,20.20
2018,09,24,17,39,20.20
2018,09,24,17,40,20.10
2018,09,24,17,41,20.00
2018,09,24,17,42,19.90
2018,09,24,17,43,19.90